{"data":{"norad_id":62727,"epoch":"2026-05-25T03:47:46.268160Z","epoch_age_seconds":57416,"freshness":"FRESH","line1":"1 62727U 25012C   26145.15817440  .00010580  00000+0  40208-3 0  9992","line2":"2 62727  97.4263 220.7774 0006689 359.3868   0.7362 15.26959876 74879","mean_motion":15.26959876,"eccentricity":0.0006689,"inclination_deg":97.4263,"raan_deg":220.7774,"arg_perigee_deg":359.3868,"mean_anomaly_deg":0.7362,"bstar":0.00040208,"rev_number":7487,"period_min":94.30503202037,"perigee_km":480.31590891568,"apogee_km":489.49728864213,"semimajor_km":6863.0435987789,"source":"CELESTRAK","updated_at":"2026-05-25T13:38:03.210484Z"}}